1501556400.9,36002,20.56,75010.3,8.71,-16.59,-17.07,0,*7E
1501556402.16,36003,20.56,75004.5,8.71,-16.55,-17.07,0,*73
1501556403.39,36004,20.56,75010.5,8.73,-16.55,-17.11,0,*71
1501556404.67,36005,20.56,75004.5,8.71,-16.65,-17.21,0,*72
1501556405.89,36006,20.56,75004.3,8.73,-16.55,-17.11,0,*73
1501556407.15,36007,20.56,75008.5,8.71,-16.59,-17.03,0,*7F
1501556408.4,36008,20.56,75008.8,8.71,-16.55,-17.17,0,*79
1501556409.62,36009,20.56,75004.8,8.73,-16.59,-17.17,0,*76
1501556410.88,36010,20.56,75008.8,8.71,-16.45,-17.07,0,*70
1501556412.16,36011,20.56,75004.0,8.71,-16.65,-17.11,0,*74
1501556413.38,36012,20.56,75006.3,8.73,-16.55,-17.11,0,*76
1501556414.63,36013,20.56,75006.0,8.71,-16.59,-17.21,0,*7A
1501556415.91,36014,20.56,75008.3,8.71,-16.65,-17.21,0,*72
1501556417.13,36015,20.56,75004.0,8.73,-16.51,-16.97,0,*7A
1501556418.39,36016,20.56,75010.0,8.71,-16.45,-17.07,0,*76
1501556419.65,36017,20.56,75008.3,8.71,-16.55,-17.07,0,*76
1501556420.91,36018,20.56,75010.0,8.71,-16.41,-17.03,0,*78
1501556422.16,36019,20.56,75006.0,8.71,-16.75,-17.21,0,*7E
1501556423.43,36020,20.56,75010.3,8.71,-16.65,-17.17,0,*70
1501556424.66,36021,20.56,75010.5,8.73,-16.55,-17.17,0,*70
1501556425.91,36022,20.56,75010.0,8.71,-16.75,-17.21,0,*76
1501556427.16,36023,20.56,75004.5,8.71,-16.75,-17.21,0,*77
1501556428.41,36024,20.56,75006.3,8.71,-16.59,-17.21,0,*7E
1501556429.69,36025,20.56,75006.3,8.71,-16.65,-17.21,0,*70
1501556430.97,36026,20.56,75010.5,8.71,-16.65,-17.21,0,*73
1501556432.21,36027,20.56,75004.3,8.73,-16.69,-17.17,0,*79
1501556433.46,36028,20.56,75004.5,8.71,-16.75,-17.21,0,*7C
1501556434.74,36029,20.56,75002.8,8.71,-16.65,-17.21,0,*7C
1501556436.02,36030,20.56,75000.5,8.71,-16.65,-17.21,0,*74
1501556437.24,36031,20.56,75000.5,8.73,-16.55,-17.17,0,*71
1501556438.5,36032,20.56,75002.8,8.71,-16.59,-17.07,0,*7D
1501556439.76,36033,20.56,75002.5,8.71,-16.59,-17.07,0,*7C
1501556440.99,36034,20.56,75002.0,8.73,-16.55,-17.03,0,*71
1501556442.24,36035,20.56,75004.8,8.71,-16.59,-17.03,0,*7E
1501556443.49,36036,20.56,75002.8,8.71,-16.55,-17.17,0,*74
1501556444.77,36037,20.56,75002.8,8.71,-16.65,-17.21,0,*73
1501556446.02,36038,20.56,75002.3,8.71,-16.59,-17.17,0,*76
1501556447.28,36039,20.56,75002.5,8.71,-16.59,-17.07,0,*76
1501556448.54,36040,20.56,75002.8,8.71,-16.59,-17.07,0,*78
1501556449.74,36041,20.56,75002.3,8.73,-16.41,-16.97,0,*7A
1501556450.97,36042,20.56,75002.0,8.73,-16.41,-17.03,0,*75
1501556452.19,36043,20.56,75006.3,8.71,-16.41,-16.93,0,*7E
1501556453.44,36044,20.56,75006.3,8.71,-16.55,-17.17,0,*71
1501556454.69,36045,20.56,75006.5,8.71,-16.55,-17.17,0,*70
1501556455.91,36046,20.56,75004.5,8.73,-16.51,-16.97,0,*7C
1501556457.16,36047,20.56,75008.8,8.71,-16.59,-17.21,0,*7B
1501556458.42,36048,20.56,75008.8,8.71,-16.55,-17.21,0,*78
1501556459.67,36049,20.56,75010.0,8.73,-16.65,-17.17,0,*7D
1501556460.89,36050,20.56,75010.5,8.71,-16.75,-17.31,0,*72
1501556462.15,36051,20.56,75010.8,8.71,-16.55,-17.07,0,*74
1501556463.37,36052,20.56,75014.0,8.71,-16.45,-16.93,0,*7A
1501556464.63,36053,20.56,75008.0,8.71,-16.45,-17.07,0,*77
1501556465.9,36054,20.56,75008.0,8.71,-16.65,-17.21,0,*76
1501556467.16,36055,20.56,75010.0,8.71,-16.75,-17.21,0,*76
1501556468.43,36056,20.56,75008.0,8.71,-16.65,-17.21,0,*74
1501556469.68,36057,20.56,75010.8,8.71,-16.75,-17.17,0,*71
1501556470.93,36058,20.56,75008.3,8.71,-16.75,-17.21,0,*7B
1501556472.18,36059,20.56,75008.0,8.71,-16.75,-17.21,0,*7A
1501556473.46,36060,20.56,75006.5,8.71,-16.65,-17.17,0,*74
1501556474.69,36061,20.56,75004.8,8.69,-16.79,-17.25,0,*70
1501556475.94,36062,20.56,75010.3,8.71,-16.59,-17.17,0,*79
1501556477.19,36063,20.56,75010.0,8.71,-16.59,-17.21,0,*7D
1501556478.46,36064,20.56,75008.8,8.71,-16.65,-17.17,0,*70
1501556479.72,36065,20.5,75006.3,8.71,-16.59,-17.07,0,*7F
1501556480.97,36066,20.56,75008.3,8.71,-16.59,-17.21,0,*78
1501556482.22,36067,20.56,75008.8,8.71,-16.75,-17.17,0,*72
1501556483.47,36068,20.56,75004.3,8.71,-16.55,-17.17,0,*7F
1501556484.72,36069,20.56,75008.8,8.71,-16.45,-17.03,0,*7A
1501556485.97,36070,20.56,75008.8,8.71,-16.55,-17.17,0,*76
1501556487.23,36071,20.56,75006.0,8.71,-16.75,-17.21,0,*70
1501556488.48,36072,20.56,75004.0,8.71,-16.59,-17.17,0,*78
1501556489.73,36073,20.56,75008.0,8.71,-16.45,-17.07,0,*75
1501556490.99,36074,20.56,75008.5,8.71,-16.45,-17.07,0,*72
1501556492.24,36075,20.56,75006.8,8.71,-16.55,-17.17,0,*73
1501556493.49,36076,20.56,75004.8,8.71,-16.45,-17.03,0,*74
1501556494.74,36077,20.56,75004.0,8.71,-16.45,-17.03,0,*75
1501556496.0,36078,20.56,75004.0,8.71,-16.55,-17.07,0,*7F
1501556497.26,36079,20.5,75004.3,8.71,-16.55,-17.03,0,*7A
1501556498.52,36080,20.56,75010.0,8.71,-16.55,-17.07,0,*78
1501556499.78,36081,20.56,75006.3,8.71,-16.55,-17.07,0,*79
1501556501.01,36082,20.56,75006.5,8.69,-16.59,-17.11,0,*78
1501556502.24,36083,20.56,75004.5,8.69,-16.59,-17.11,0,*79
1501556503.5,36084,20.56,75010.8,8.69,-16.51,-17.07,0,*71
1501556504.76,36085,20.56,75008.3,8.69,-16.51,-17.11,0,*77
1501556505.98,36086,20.5,75004.8,8.69,-16.79,-17.25,0,*79
1501556507.24,36087,20.56,75010.8,8.71,-16.59,-17.21,0,*77
1501556508.46,36088,20.56,75006.3,8.69,-16.79,-17.25,0,*77
1501556509.71,36089,20.56,75008.0,8.71,-16.55,-17.17,0,*70
1501556510.95,36090,20.56,75008.3,8.69,-16.45,-17.07,0,*71
1501556512.21,36091,20.56,75012.8,8.69,-16.65,-17.21,0,*76
1501556513.47,36092,20.56,75008.5,8.69,-16.65,-17.07,0,*71
1501556514.68,36093,20.56,75008.8,8.69,-16.79,-17.35,0,*7C
1501556515.94,36094,20.5,75008.3,8.69,-16.65,-17.21,0,*73
1501556517.19,36095,20.56,75008.0,8.69,-16.69,-17.25,0,*7A
1501556518.47,36096,20.56,75010.0,8.71,-16.65,-17.21,0,*78
1501556519.73,36097,20.56,75010.3,8.67,-16.59,-17.07,0,*75
1501556521.01,36098,20.5,75006.5,8.71,-16.65,-17.21,0,*76
1501556522.26,36099,20.56,75010.0,8.69,-16.69,-17.11,0,*71
1501556523.54,36100,20.56,75008.8,8.67,-16.69,-17.21,0,*7D
1501556524.77,36101,20.56,75006.3,8.69,-16.59,-17.21,0,*71
1501556526.02,36102,20.56,75010.5,8.69,-16.51,-17.11,0,*79
1501556527.28,36103,20.56,75008.0,8.69,-16.51,-17.07,0,*7F
1501556528.54,36104,20.56,75008.0,8.69,-16.65,-17.11,0,*78
1501556529.81,36105,20.5,75006.3,8.69,-16.65,-17.07,0,*7E
1501556531.04,36106,20.56,75008.0,8.69,-16.59,-17.11,0,*75
1501556532.29,36107,20.56,75006.8,8.69,-16.51,-17.11,0,*7C
1501556533.53,36108,20.5,75004.8,8.69,-16.59,-17.07,0,*7C
1501556534.76,36109,20.5,75004.5,8.69,-16.59,-17.21,0,*79
1501556536.02,36110,20.5,75006.5,8.69,-16.65,-17.07,0,*7A
1501556537.27,36111,20.5,75006.3,8.71,-16.59,-17.21,0,*79
1501556538.55,36112,20.5,75002.5,8.71,-16.65,-17.25,0,*71
1501556539.8,36113,20.56,75006.8,8.71,-16.59,-17.17,0,*7E
1501556541.03,36114,20.56,75008.0,8.69,-16.59,-17.21,0,*75
1501556542.27,36115,20.5,75002.0,8.69,-16.59,-17.07,0,*70
1501556543.52,36116,20.56,75008.3,8.69,-16.51,-17.11,0,*7C
1501556544.78,36117,20.56,75006.0,8.69,-16.51,-17.07,0,*7A
1501556546.04,36118,20.56,75006.0,8.69,-16.51,-17.07,0,*75
1501556547.24,36119,20.56,75008.0,8.69,-16.37,-16.93,0,*78
1501556548.44,36120,20.5,75006.3,8.69,-16.45,-16.97,0,*73
1501556549.7,36121,20.5,75004.5,8.69,-16.51,-17.07,0,*7F
1501556550.94,36122,20.56,75004.8,8.69,-16.45,-17.07,0,*79
1501556552.2,36123,20.56,75008.5,8.69,-16.65,-17.21,0,*7E
1501556553.45,36124,20.56,75008.0,8.71,-16.55,-17.17,0,*76
1501556554.7,36125,20.5,75006.5,8.69,-16.69,-17.21,0,*74
1501556555.91,36126,20.56,75006.0,8.69,-16.37,-16.83,0,*75
1501556557.11,36127,20.5,75004.8,8.69,-16.37,-16.93,0,*75
1501556558.33,36128,20.5,75010.3,8.69,-16.31,-16.83,0,*7D
1501556559.58,36129,20.56,75008.3,8.71,-16.27,-16.93,0,*73
1501556560.8,36130,20.56,75010.8,8.71,-16.45,-16.93,0,*7F
1501556562.06,36131,20.5,75006.8,8.71,-16.45,-17.07,0,*72
1501556563.3,36132,20.56,75008.5,8.71,-16.27,-16.89,0,*72
1501556564.56,36133,20.56,75006.8,8.71,-16.45,-17.07,0,*70
1501556565.81,36134,20.5,75008.5,8.71,-16.45,-17.03,0,*73
1501556567.05,36135,20.56,75010.3,8.71,-16.31,-16.89,0,*72
1501556568.27,36136,20.5,75006.3,8.71,-16.41,-16.93,0,*7D
1501556569.5,36137,20.5,75004.3,8.71,-16.41,-16.93,0,*7C
1501556570.72,36138,20.56,75010.8,8.71,-16.45,-16.93,0,*77
1501556571.98,36139,20.5,75008.3,8.71,-16.45,-17.07,0,*7A
1501556573.23,36140,20.56,75010.8,8.71,-16.59,-17.03,0,*7D
1501556574.51,36141,20.56,75008.5,8.71,-16.65,-17.21,0,*73
1501556575.78,36142,20.5,75006.3,8.71,-16.65,-17.21,0,*70
1501556577.04,36143,20.5,75004.3,8.71,-16.55,-17.07,0,*76
1501556578.29,36144,20.56,75008.5,8.71,-16.59,-17.21,0,*79
1501556579.54,36145,20.5,75006.5,8.71,-16.59,-17.17,0,*7D
1501556580.82,36146,20.5,75010.3,8.71,-16.65,-17.21,0,*74
1501556582.08,36147,20.5,75008.0,8.71,-16.45,-17.07,0,*73
1501556583.34,36148,20.5,75010.0,8.71,-16.59,-17.07,0,*71
1501556584.59,36149,20.56,75010.0,8.69,-16.65,-17.21,0,*72
1501556585.83,36150,20.5,75006.8,8.69,-16.59,-17.11,0,*76
1501556587.03,36151,20.56,75010.0,8.69,-16.45,-16.97,0,*75
1501556588.26,36152,20.56,75008.8,8.69,-16.51,-16.97,0,*73
1501556589.49,36153,20.5,75010.0,8.69,-16.59,-17.07,0,*72
1501556590.72,36154,20.56,75010.8,8.71,-16.41,-16.93,0,*79
1501556591.98,36155,20.56,75008.0,8.71,-16.59,-17.07,0,*7D
1501556593.18,36156,20.5,75004.8,8.69,-16.45,-16.93,0,*76
1501556594.44,36157,20.5,75006.0,8.67,-16.45,-17.07,0,*75
1501556595.66,36158,20.5,75006.0,8.69,-16.51,-16.97,0,*79
1501556596.86,36159,20.56,75006.0,8.69,-16.45,-16.97,0,*7D
1501556598.07,36160,20.5,75006.5,8.69,-16.45,-16.97,0,*77
1501556599.31,36161,20.5,75010.3,8.69,-16.59,-17.07,0,*73
1501556600.59,36162,20.5,75004.8,8.67,-16.65,-17.11,0,*76
1501556601.82,36163,20.5,75006.3,8.69,-16.59,-17.11,0,*76
1501556603.07,36164,20.5,75002.8,8.71,-16.59,-17.17,0,*7E
1501556604.29,36165,20.56,75004.3,8.69,-16.51,-16.97,0,*77
1501556605.51,36166,20.5,75006.0,8.69,-16.31,-16.93,0,*76
1501556606.74,36167,20.56,75004.8,8.69,-16.31,-16.83,0,*76
1501556607.99,36168,20.56,75008.0,8.67,-16.31,-16.83,0,*77
1501556609.25,36169,20.5,75008.5,8.69,-16.51,-17.07,0,*73
1501556610.51,36170,20.56,75010.3,8.69,-16.51,-17.07,0,*7B
1501556611.76,36171,20.56,75012.8,8.71,-16.55,-17.03,0,*73
1501556613.01,36172,20.5,75012.8,8.71,-16.45,-17.03,0,*71
1501556614.27,36173,20.56,75018.8,8.69,-16.51,-17.11,0,*7F
1501556615.5,36174,20.5,75012.3,8.69,-16.59,-17.11,0,*70
1501556616.76,36175,20.5,75012.5,8.69,-16.65,-17.21,0,*7D
1501556618.01,36176,20.5,75014.0,8.69,-16.65,-17.25,0,*7A
1501556619.27,36177,20.5,75014.8,8.69,-16.51,-17.07,0,*7C
1501556620.5,36178,20.5,75018.3,8.69,-16.59,-17.11,0,*7C
1501556621.73,36179,20.56,75022.0,8.69,-16.59,-17.21,0,*7E
1501556623.01,36180,20.56,75020.5,8.67,-16.65,-17.21,0,*79
1501556624.25,36181,20.5,75014.3,8.69,-16.45,-17.07,0,*70
1501556625.48,36182,20.5,75018.8,8.69,-16.59,-17.11,0,*79
1501556626.72,36183,20.5,75016.8,8.69,-16.45,-17.07,0,*72
1501556627.98,36184,20.5,75014.5,8.67,-16.45,-17.07,0,*7B
1501556629.23,36185,20.5,75008.5,8.69,-16.51,-17.11,0,*76
1501556630.49,36186,20.5,75014.3,8.69,-16.65,-17.21,0,*71
1501556631.72,36187,20.5,75016.5,8.69,-16.59,-17.21,0,*7F
1501556632.97,36188,20.5,75010.5,8.67,-16.59,-17.21,0,*7E
1501556634.23,36189,20.5,75014.0,8.67,-16.59,-17.11,0,*7C
1501556635.45,36190,20.5,75012.3,8.67,-16.37,-16.97,0,*73
1501556636.71,36191,20.5,75010.3,8.67,-16.37,-17.07,0,*7A
1501556637.98,36192,20.5,75006.8,8.69,-16.51,-17.07,0,*77
1501556639.22,36193,20.5,75006.5,8.67,-16.31,-16.93,0,*72
1501556640.44,36194,20.5,75006.0,8.69,-16.03,-16.51,0,*74
1501556641.69,36195,20.5,75000.3,8.67,-16.23,-16.83,0,*76
1501556642.92,36196,20.5,75000.3,8.69,-16.23,-16.83,0,*7B
1501556644.12,36197,20.5,75002.3,8.69,-16.37,-16.93,0,*7E
1501556645.35,36198,20.5,75000.0,8.69,-16.23,-16.83,0,*75
1501556646.56,36199,20.5,75002.3,8.69,-16.37,-16.97,0,*74
1501556647.76,36200,20.5,75000.3,8.69,-16.37,-16.93,0,*73
1501556648.98,36201,20.5,74998.5,8.69,-16.31,-16.83,0,*75
1501556650.21,36202,20.5,75002.0,8.69,-16.23,-16.79,0,*70
1501556651.44,36203,20.5,75000.5,8.69,-16.17,-16.79,0,*76
1501556652.65,36204,20.5,75004.3,8.69,-16.37,-16.83,0,*76
1501556653.88,36205,20.5,75004.5,8.69,-16.23,-16.79,0,*77
1501556655.11,36206,20.5,75004.5,8.69,-16.17,-16.79,0,*73
1501556656.37,36207,20.5,75006.5,8.71,-16.17,-16.75,0,*77
1501556657.59,36208,20.5,75004.5,8.73,-16.27,-16.79,0,*75
1501556658.81,36209,20.5,75006.3,8.73,-16.23,-16.75,0,*7C
1501556660.06,36210,20.5,75002.5,8.71,-16.27,-16.79,0,*7E
1501556661.31,36211,20.5,75008.5,8.71,-16.27,-16.79,0,*7F
1501556662.54,36212,20.5,75010.5,8.73,-16.27,-16.83,0,*7B
1501556663.76,36213,20.5,75008.5,8.71,-16.41,-16.89,0,*72
1501556665.01,36214,20.5,75010.8,8.71,-16.17,-16.89,0,*76
1501556666.26,36215,20.5,75008.3,8.71,-16.27,-16.89,0,*74
1501556667.51,36216,20.5,75012.5,8.71,-16.17,-16.79,0,*7B
1501556668.76,36217,20.5,75010.3,8.71,-16.17,-16.75,0,*76
1501556670.02,36218,20.5,75008.0,8.71,-16.13,-16.75,0,*7D
1501556671.27,36219,20.5,75010.8,8.73,-16.13,-16.69,0,*73
1501556672.52,36220,20.5,75010.5,8.71,-16.17,-16.79,0,*7E
1501556673.72,36221,20.5,75010.8,8.73,-16.37,-16.89,0,*70
1501556674.96,36222,20.5,75010.5,8.71,-16.31,-16.93,0,*7C
1501556676.19,36223,20.5,75008.8,8.73,-16.23,-16.75,0,*74
1501556677.41,36224,20.5,75006.0,8.73,-16.27,-16.75,0,*77
1501556678.66,36225,20.5,75006.3,8.71,-16.31,-16.79,0,*7F
1501556679.9,36226,20.5,75010.3,8.71,-16.31,-16.79,0,*7C
1501556681.15,36227,20.5,75010.5,8.71,-16.31,-16.89,0,*72
1501556682.36,36228,20.5,75008.5,8.73,-16.27,-16.89,0,*78
1501556683.57,36229,20.5,75008.0,8.73,-16.41,-16.97,0,*76
1501556684.81,36230,20.5,75006.3,8.71,-16.59,-17.17,0,*7C
1501556686.06,36231,20.5,75000.5,8.73,-16.51,-17.03,0,*72
1501556687.31,36232,20.5,75004.5,8.73,-16.51,-17.11,0,*72
1501556688.56,36233,20.5,75002.3,8.71,-16.45,-17.03,0,*77
1501556689.81,36234,20.5,75004.0,8.71,-16.31,-16.79,0,*7F
1501556691.05,36235,20.5,75006.5,8.71,-16.31,-16.79,0,*7E
1501556692.3,36236,20.5,75004.0,8.71,-16.27,-16.79,0,*7A
1501556693.54,36237,20.5,75006.0,8.71,-16.31,-16.89,0,*73
1501556694.79,36238,20.5,75004.5,8.73,-16.23,-16.69,0,*73
1501556696.03,36239,20.5,75008.8,8.71,-16.31,-16.89,0,*7D
1501556697.29,36240,20.5,75006.0,8.71,-16.17,-16.75,0,*74
1501556698.52,36241,20.5,75006.0,8.73,-16.17,-16.75,0,*77
1501556699.75,36242,20.5,75008.3,8.73,-16.13,-16.75,0,*70
1501556701.0,36243,20.5,75006.3,8.71,-16.17,-16.75,0,*77
1501556702.2,36244,20.5,75008.3,8.73,-15.99,-16.59,0,*79
1501556703.42,36245,20.5,75002.3,8.73,-16.23,-16.75,0,*74
1501556704.67,36246,20.5,75006.3,8.71,-16.31,-16.93,0,*7E
1501556705.89,36247,20.5,75004.8,8.73,-16.51,-16.97,0,*7F
1501556707.13,36248,20.5,75004.3,8.71,-16.31,-16.79,0,*74
1501556708.36,36249,20.5,75008.5,8.73,-16.23,-16.75,0,*78
1501556709.61,36250,20.5,75004.5,8.71,-16.17,-16.79,0,*79
1501556710.86,36251,20.5,75006.5,8.71,-16.27,-16.79,0,*7B
1501556712.11,36252,20.5,75006.3,8.71,-16.27,-16.79,0,*78
1501556713.36,36253,20.5,75004.3,8.73,-16.23,-16.69,0,*7E
1501556714.61,36254,20.5,75004.8,8.73,-16.09,-16.69,0,*71
1501556715.84,36255,20.5,75006.5,8.73,-16.09,-16.55,0,*7F
1501556717.09,36256,20.5,75008.0,8.73,-16.13,-16.69,0,*78
1501556718.32,36257,20.5,75004.0,8.73,-16.09,-16.75,0,*7F
1501556719.55,36258,20.5,75006.5,8.73,-16.13,-16.75,0,*7B
1501556720.8,36259,20.5,75002.3,8.73,-16.23,-16.69,0,*74
1501556722.02,36260,20.5,75004.8,8.75,-15.95,-16.55,0,*79
1501556723.27,36261,20.5,75004.3,8.75,-16.23,-16.79,0,*78
1501556724.55,36262,20.5,75004.0,8.75,-16.17,-16.69,0,*7D
1501556725.83,36263,20.5,75002.0,8.77,-16.09,-16.65,0,*7D
1501556727.08,36264,20.5,75006.0,8.75,-16.09,-16.79,0,*75
1501556728.33,36265,20.5,75004.3,8.75,-16.23,-16.83,0,*79
1501556729.61,36266,20.5,75002.5,8.75,-16.09,-16.69,0,*76
1501556730.89,36267,20.5,75006.8,8.75,-16.09,-16.69,0,*77
1501556732.14,36268,20.5,75000.8,8.75,-16.31,-16.83,0,*77
1501556733.38,36269,20.5,75008.8,8.75,-16.23,-16.79,0,*70
1501556734.66,36270,20.5,75010.5,8.75,-16.09,-16.69,0,*71
1501556735.95,36271,20.5,75008.0,8.77,-16.09,-16.65,0,*7E
1501556737.22,36272,20.5,75004.8,8.75,-16.17,-16.69,0,*7C
1501556738.47,36273,20.5,75006.5,8.75,-16.23,-16.83,0,*7E
1501556739.7,36274,20.5,75008.8,8.75,-16.37,-16.83,0,*7C
1501556740.94,36275,20.5,75008.8,8.75,-16.23,-16.79,0,*7D
1501556742.2,36276,20.5,75006.0,8.75,-16.17,-16.79,0,*79
1501556743.45,36277,20.5,75008.0,8.77,-16.23,-16.79,0,*7D
1501556744.7,36278,20.5,75010.5,8.75,-16.23,-16.83,0,*75
1501556745.94,36279,20.5,75004.0,8.75,-16.31,-16.83,0,*77
1501556747.19,36280,20.5,75004.8,8.75,-16.23,-16.83,0,*72
1501556748.47,36281,20.5,75008.8,8.75,-16.17,-16.69,0,*70
1501556749.71,36282,20.5,75010.8,8.75,-16.31,-16.83,0,*73
1501556750.99,36283,20.5,75006.5,8.75,-16.17,-16.69,0,*72
1501556752.24,36284,20.5,75004.3,8.75,-16.23,-16.79,0,*73
1501556753.49,36285,20.5,75002.8,8.77,-16.23,-16.83,0,*75
1501556754.77,36286,20.5,75006.3,8.75,-16.17,-16.69,0,*77
1501556756.02,36287,20.5,75004.3,8.75,-16.09,-16.79,0,*78
1501556757.3,36288,20.5,75006.8,8.75,-16.09,-16.65,0,*7A
1501556758.58,36289,20.5,75008.8,8.77,-16.09,-16.69,0,*75
1501556759.84,36290,20.5,75006.8,8.77,-16.23,-16.79,0,*74
1501556761.09,36291,20.5,75004.8,8.77,-16.23,-16.79,0,*75
1501556762.35,36292,20.5,75004.0,8.77,-16.23,-16.83,0,*73
1501556763.62,36293,20.5,75008.8,8.75,-16.17,-16.69,0,*73
1501556764.87,36294,20.5,75008.5,8.75,-16.23,-16.83,0,*77
1501556766.15,36295,20.5,75004.8,8.77,-16.17,-16.69,0,*77
1501556767.43,36296,20.5,75008.0,8.77,-16.09,-16.65,0,*77
1501556768.68,36297,20.5,75004.0,8.77,-16.03,-16.65,0,*7C
1501556769.93,36298,20.5,75006.5,8.75,-16.03,-16.65,0,*71
1501556771.21,36299,20.5,75004.3,8.77,-16.17,-16.69,0,*7B
1501556772.49,36300,20.5,75008.0,8.77,-16.17,-16.69,0,*7A
1501556773.75,36301,20.5,75008.3,8.77,-16.23,-16.79,0,*7D
1501556775.03,36302,20.5,75012.0,8.77,-16.17,-16.69,0,*78
1501556776.28,36303,20.5,75008.3,8.77,-16.31,-16.79,0,*7C
1501556777.56,36304,20.5,75008.3,8.77,-16.17,-16.69,0,*7E
1501556778.78,36305,20.5,75004.0,8.77,-16.37,-16.93,0,*78
1501556780.04,36306,20.5,75008.5,8.77,-16.17,-16.79,0,*7D
1501556781.29,36307,20.5,75008.5,8.77,-16.31,-16.83,0,*7D
1501556782.57,36308,20.5,75014.8,8.77,-16.51,-17.11,0,*7E
1501556783.82,36309,20.5,75012.0,8.77,-16.31,-16.93,0,*72
1501556785.06,36310,20.5,75012.5,8.77,-16.31,-16.93,0,*7A
1501556786.31,36311,20.5,75014.8,8.77,-16.31,-16.83,0,*7A
1501556787.56,36312,20.5,75014.0,8.77,-16.31,-16.93,0,*78
1501556788.79,36313,20.5,75012.5,8.77,-16.37,-16.97,0,*7B
1501556790.04,36314,20.5,75014.5,8.77,-16.23,-16.83,0,*7C
1501556791.28,36315,20.5,75014.3,8.77,-16.31,-16.93,0,*7F
1501556792.53,36316,20.5,75012.3,8.75,-16.23,-16.79,0,*79
1501556793.78,36317,20.5,75010.3,8.75,-16.23,-16.79,0,*78
1501556795.04,36318,20.5,75012.8,8.77,-16.17,-16.83,0,*77
1501556796.27,36319,20.5,75016.8,8.79,-16.27,-16.75,0,*72
1501556797.52,36320,20.5,75012.0,8.77,-16.31,-16.97,0,*7D
1501556798.77,36321,20.5,75014.0,8.75,-16.23,-16.79,0,*7D
1501556800.02,36322,20.5,75014.0,8.77,-16.23,-16.83,0,*79
1501556801.27,36323,20.5,75014.3,8.77,-16.31,-16.93,0,*7A
1501556802.52,36324,20.5,75010.3,8.77,-16.51,-16.97,0,*7F
1501556803.76,36325,20.5,75010.5,8.75,-16.31,-16.83,0,*7F
1501556805.01,36326,20.5,75010.0,8.77,-16.31,-16.93,0,*7F
1501556806.26,36327,20.5,75006.0,8.77,-16.31,-16.97,0,*7A
1501556807.51,36328,20.5,75010.8,8.75,-16.23,-16.83,0,*71
1501556808.79,36329,20.5,75010.3,8.77,-16.17,-16.69,0,*71
1501556810.05,36330,20.5,75010.0,8.77,-16.17,-16.83,0,*7D
1501556811.32,36331,20.5,75008.0,8.77,-16.17,-16.65,0,*74
1501556812.56,36332,20.5,75008.3,8.79,-16.17,-16.75,0,*78
1501556813.78,36333,20.5,75008.8,8.77,-16.37,-16.93,0,*7D
1501556815.04,36334,20.5,75010.0,8.77,-16.31,-16.83,0,*7D
1501556816.31,36335,20.5,75006.3,8.77,-16.23,-16.69,0,*7B
1501556817.57,36336,20.5,75002.8,8.77,-16.23,-16.83,0,*7C
1501556818.82,36337,20.5,75006.5,8.77,-16.23,-16.83,0,*7D
1501556820.07,36338,20.5,75006.5,8.75,-16.31,-16.79,0,*76
1501556821.32,36339,20.5,75000.5,8.77,-16.23,-16.83,0,*73
1501556822.57,36340,20.5,75004.5,8.77,-16.23,-16.79,0,*78
1501556823.83,36341,20.5,75002.8,8.77,-16.23,-16.83,0,*7C
1501556825.05,36342,20.5,75002.5,8.79,-16.31,-16.79,0,*77
1501556826.3,36343,20.5,75004.8,8.75,-16.23,-16.83,0,*7C
1501556827.55,36344,20.5,75006.0,8.77,-16.31,-16.83,0,*7A
1501556828.78,36345,20.5,75004.3,8.77,-16.37,-16.97,0,*78
1501556830.02,36346,20.5,75006.8,8.75,-16.31,-16.93,0,*7B
1501556831.28,36347,20.5,75006.0,8.77,-16.17,-16.79,0,*78
1501556832.53,36348,20.5,75006.0,8.77,-16.31,-16.83,0,*76
1501556833.78,36349,20.5,75004.3,8.79,-16.27,-16.65,0,*76
1501556835.03,36350,20.5,75004.5,8.77,-16.23,-16.79,0,*79
1501556836.29,36351,20.5,75004.5,8.77,-16.23,-16.79,0,*78
1501556837.55,36352,20.5,75004.5,8.77,-16.17,-16.79,0,*7C
1501556838.8,36353,20.5,75002.5,8.77,-16.23,-16.79,0,*7A
1501556840.05,36354,20.5,75006.5,8.77,-16.31,-16.83,0,*7B
1501556841.28,36355,20.5,75004.8,8.79,-16.17,-16.75,0,*79
1501556842.54,36356,20.5,75010.5,8.77,-16.31,-16.83,0,*79
1501556843.79,36357,20.5,75000.8,8.77,-16.31,-16.83,0,*78
1501556845.04,36358,20.5,75008.3,8.77,-16.31,-16.83,0,*77
1501556846.3,36359,20.5,75006.3,8.77,-16.17,-16.79,0,*77
1501556847.52,36360,20.5,75006.5,8.79,-16.27,-16.79,0,*70
1501556848.75,36361,20.5,75006.8,8.79,-16.17,-16.79,0,*72
1501556849.95,36362,20.5,75002.3,8.79,-16.41,-16.93,0,*76
1501556851.18,36363,20.5,75004.8,8.77,-16.37,-16.97,0,*7C
1501556852.43,36364,20.5,75008.5,8.77,-16.31,-16.83,0,*78
1501556853.68,36365,20.5,75006.3,8.77,-16.31,-16.93,0,*78
1501556854.91,36366,20.5,75008.0,8.77,-16.37,-16.97,0,*79
1501556856.15,36367,20.5,75008.5,8.77,-16.31,-16.93,0,*7A
1501556857.4,36368,20.5,75010.8,8.77,-16.31,-16.93,0,*75
1501556858.63,36369,20.5,75012.8,8.79,-16.17,-16.79,0,*7A
1501556859.86,36370,20.5,75012.3,8.79,-16.17,-16.75,0,*7E
1501556861.11,36371,20.5,75014.3,8.77,-16.31,-16.93,0,*7D
1501556862.35,36372,20.5,75014.3,8.77,-16.31,-16.93,0,*7E
1501556863.58,36373,20.5,75012.0,8.77,-16.45,-16.93,0,*7C
1501556864.84,36374,20.5,75012.0,8.77,-16.45,-17.07,0,*77
1501556866.07,36375,20.5,75016.3,8.77,-16.37,-16.93,0,*7F
1501556867.29,36376,20.5,75014.5,8.77,-16.37,-16.93,0,*7C
1501556868.51,36377,20.5,75016.3,8.79,-16.27,-16.89,0,*79
1501556869.74,36378,20.5,75012.3,8.79,-16.27,-16.89,0,*76
1501556870.96,36379,20.5,75012.8,8.79,-16.31,-16.89,0,*70
1501556872.18,36380,20.5,75012.3,8.79,-16.27,-16.89,0,*71
1501556873.41,36381,20.5,75014.5,8.79,-16.17,-16.75,0,*70
1501556874.67,36382,20.5,75010.5,8.77,-16.23,-16.79,0,*76
1501556875.9,36383,20.5,75008.8,8.79,-16.17,-16.79,0,*7E
1501556877.15,36384,20.5,75008.3,8.77,-16.23,-16.83,0,*75
1501556878.4,36385,20.5,75006.5,8.77,-16.31,-16.79,0,*72
1501556879.66,36386,20.5,75008.5,8.77,-16.23,-16.79,0,*72
1501556880.91,36387,20.5,75004.3,8.77,-16.23,-16.83,0,*76
1501556882.17,36388,20.5,75010.5,8.77,-16.17,-16.79,0,*7B
1501556883.42,36389,20.5,75008.0,8.77,-16.23,-16.83,0,*78
1501556884.68,36390,20.5,75006.3,8.77,-16.17,-16.79,0,*72
1501556885.93,36391,20.5,75010.0,8.77,-16.31,-16.79,0,*77
1501556887.16,36392,20.5,75006.5,8.75,-16.37,-16.79,0,*70
1501556888.4,36393,20.5,75008.5,8.77,-16.31,-16.93,0,*71
1501556889.64,36394,20.5,75008.0,8.77,-16.31,-16.93,0,*76
1501556890.93,36395,20.5,75014.3,8.77,-16.51,-17.07,0,*7D
1501556892.16,36396,20.5,75010.0,8.77,-16.37,-16.97,0,*76
1501556893.38,36397,20.5,75010.5,8.77,-16.37,-16.93,0,*73
1501556894.63,36398,20.5,75010.5,8.77,-16.51,-16.93,0,*7C
1501556895.88,36399,20.5,75012.3,8.77,-16.31,-16.83,0,*7A
1501556897.14,36400,20.5,75012.8,8.77,-16.23,-16.83,0,*7E
1501556898.39,36401,20.5,75008.3,8.77,-16.31,-16.83,0,*7C
1501556899.61,36402,20.5,75008.0,8.79,-16.27,-16.89,0,*7C
1501556900.84,36403,20.5,75012.3,8.77,-16.37,-16.97,0,*7D
1501556902.12,36404,20.5,75010.0,8.75,-16.51,-17.07,0,*70
1501556903.37,36405,20.5,75008.8,8.77,-16.23,-16.97,0,*7E
1501556904.6,36406,20.5,75008.8,8.77,-16.37,-16.97,0,*78
1501556905.85,36407,20.5,75014.8,8.77,-16.31,-16.83,0,*7A
1501556907.09,36408,20.5,75012.0,8.79,-16.27,-16.75,0,*75
1501556908.33,36409,20.5,75012.3,8.77,-16.31,-16.93,0,*75
1501556909.53,36410,20.5,75012.3,8.79,-16.41,-16.93,0,*74
1501556910.75,36411,20.5,75014.3,8.75,-16.37,-16.93,0,*78
1501556911.98,36412,20.5,75012.8,8.77,-16.37,-16.97,0,*7D
1501556913.24,36413,20.5,75014.8,8.77,-16.55,-17.11,0,*77